SL-19 R/B, 35501

Orbit data source: Space-Track

SL-19 R/B, 35501 is space debris in LEO originally from a launch on Mon, 06 Jul 2009 UTC launched from the Plesetsk Missile And Space Complex (PKMTR). Debris objects in space refer to the collection of defunct objects orbiting the Earth. Examples of debris include non-operational satellites, rocket bodies, and fragments generated from explosions, collisions, or faulty payload assembly.

Loading next visibility...
Identifier
35501, 2009-036D
Orbit
LEO
Country
Flag of CISCIS
Related business
Manufacturer
Khrunichev
Mission
Spacecraft
Bus & Motor
BRIZ, S5.92
Mass
2,370 kg wet, 2,370 kg dry
Launch date (UTC)
2009-07-06 (17 years ago)
Launch vehicle
Unknown
Launch site
Plesetsk Missile And Space Complex (PKMTR)
Object type
Payload
Rocket body
Debris
Shape & HBR
Hex Cyl + 1 Rod, 2.0 m
Radar Cross Section
10.190 m², Large (>1 m²)

Expand to show TLE details & history
Last TLE update: 13 hours ago

TLE from 13 hours ago
0 SL-19 R/B
1 35501U 09036D   26127.75066507  .00000026  00000-0  62444-4 0  9998
2 35501  82.4950 215.4915 0196414  26.3720  87.2743 12.76650235784643
Epoch: 2026-05-07T18:00Z
TLE epoch observation values (Epoch: 2026-05-07T18:00:57.462Z)
Latitude
63.19471°
Longitude
-115.37755°
Altitude
1,361.555 km
Speed
7.186 km/s
True Right ascension
01h 21m 49s
True Declination
63° 04' 01"
Sunlit
Object was in daylight at epoch
Visualization orbit readout
Latitude
Unknown
Longitude
Unknown
Altitude
Unknown
Speed
Unknown
Apparent Right ascension
Unknown
Apparent Declination
Unknown
Sunlit
N/A
Visualization observer readout
Local Sidereal Time
15:22:23
Azimuth
Unknown
Elevation
Unknown
Doppler factor
Unknown
Orbital elements
Apogee altitude
1,504.106 km
Perigee altitude
1,200.434 km
Semi-major axis
7,730.407 km
Eccentricity
0.01964
Inclination
82.495°
RAAN
215.4915°
Arg. of periapsis
26.372°
True anomaly
89.52454°
Mean anomaly
87.2743°
Eccentric anomaly
88.39923°
Mean motion
3.1933 °/min
Orbital period
112.74 mins
BSTAR
0.000062444
Loading maneuver chart data...
Computing Atmospheric mass density...
Loading historical data...
Loading historical data...
Loading historical data...
Loading historical data...
Loading historical data...
Loading historical data...
Loading historical data...
Other satellites on launch #36 in the year 2009 (2009-07-06 UTC)

Documentation

Showing up to 5 results
|